Voltar ao catálogo

IABS R/B

AtivoGEO
NORAD 25021·ROCKET BODY·🇺🇸 United States

Lançado Oct 25, 1997 de Cape Canaveral Space Force Station

Loading…

TLE

AtualizadoSource: Space-Track

Época: Sep 14, 2026, 10:49 UTC

1 25021U 97065C   26257.45100252 -.00000063  00000-0  00000-0 0  9998
2 25021  14.1562 351.4241 0050571 210.5257 181.7752  1.01054714107407

Acompanhe IABS R/B em tempo real com AllMySat

Download on the App Store